Regional Weather Roundup
Issued by NWS

Current Version | Previous Version | Text Only | Print | Product List | Glossary Off
Versions: 1 2 3 4 5 6 7 8 9 10 11 12 13 14 15 16 17 18 19 20 21 22 23 24 25 26 27

000
ASUS44 KBMX 270810
RWRAL

ALABAMA REGIONAL WEATHER ROUNDUP
NATIONAL WEATHER SERVICE BIRMINGHAM AL
300 AM CDT THU JUL 27 2017

NOTE: "FAIR" INDICATES FEW OR NO CLOUDS BELOW 12,000 FEET
WITH NO SIGNIFICANT WEATHER AND/OR OBSTRUCTIONS TO VISIBILITY.

THE REMARK "TC" DENOTES TEMPERATURE IN DEGREES CELSIUS.

ALZ001>011-014-016>018-020-270900-
NORTH ALABAMA

CITY           SKY/WX    TMP DP  RH WIND       PRES   REMARKS
MUSCLE SHOALS  CLEAR     76  72  87 CALM      30.04S
HUNTSVILLE     CLEAR     78  77  96 SE5       30.03F
DECATUR        CLEAR     76  76 100 MISG      30.03F
HALEYVILLE     NOT AVBL
GADSDEN        CLEAR     74  74 100 CALM      30.05S
$$

ALZ012-013-022-023-030>036-040>044-270900-
WEST CENTRAL ALABAMA

CITY           SKY/WX    TMP DP  RH WIND       PRES   REMARKS
TUSCALOOSA     PTCLDY    77  77 100 CALM      30.03S FOG
DEMOPOLIS        N/A    N/A N/A N/A CALM      30.02S HAZE
$$

ALZ015-024>026-033>036-041>044-270900-
CENTRAL ALABAMA

CITY           SKY/WX    TMP DP  RH WIND       PRES   REMARKS
BIRMINGHAM     CLEAR     76  74  93 CALM      30.06F
MONTGOMERY     CLEAR     75  70  84 CALM      30.03S
SHELBY CO ARPT CLEAR     76  75  97 CALM      30.04F FOG
MAXWELL AFB    CLEAR     74  74  99 CALM      30.02F
GREENVILLE     FAIR      72  68  87 CALM      30.03S
SELMA          FAIR      70  68  94 CALM      30.02S
PRATTVILLE     FAIR      73  73 100 CALM      30.03S
BESSEMER       FAIR      73  73 100 CALM      30.05F FOG
TALLADEGA      FAIR      74  73  97 MISG      30.05F
PELL CITY      SUNNY     73  73 100 CALM      30.04F FOG
MARION         NOT AVBL
SYLACAUGA      MOCLDY    73  73 100 CALM      30.05F
$$

ALZ019-021-028-029-037-038-045>048-270900-
EAST CENTRAL ALABAMA

CITY           SKY/WX    TMP DP  RH WIND       PRES   REMARKS
ANNISTON       CLEAR     76  74  93 CALM      30.05S
ALEXANDER CITY CLEAR     75  74  96 CALM      30.05F
AUBURN         CLEAR     76  72  87 E5        30.06F
$$

ALZ051>064-270900-
SOUTHWEST ALABAMA

CITY           SKY/WX    TMP DP  RH WIND       PRES   REMARKS
MOBILE         CLEAR     76  73  91 W3        30.03F
BROOKLEY FIELD CLEAR     78  73  84 CALM      30.03F
EVERGREEN      CLEAR     72  70  93 CALM      30.03S FOG
$$

ALZ049-050-065>069-270900-
SOUTHEAST ALABAMA

CITY           SKY/WX    TMP DP  RH WIND       PRES   REMARKS
DOTHAN         CLEAR     74  73  97 CALM      30.05F
OZARK          CLEAR     74  71  89 NE5       30.02F
TROY           PTCLDY    73  73 100 CALM      30.04F
EUFAULA        FAIR      74  73  97 E3        30.02F
$$




USA.gov is the U.S. government's official web portal to all federal, state and local government web resources and services.